Regional Weather Roundup
Issued by NWS

Home | Current Version | Previous Version | Text Only | Print | Product List | Glossary Off
Versions: 1 2 3 4 5 6 7 8 9 10 11 12 13 14 15 16 17 18 19 20 21 22 23 24 25 26 27 28 29 30 31 32 33 34 35 36 37 38 39 40 41 42 43 44 45 46 47 48 49 50

000
ASUS43 KOAX 261102
RWRNE

WEATHER ROUNDUP FOR NEBRASKA
NATIONAL WEATHER SERVICE OMAHA NE
500 AM CST WED NOV 26 2014

NOTES: SATELLITE DATA IS BEING USED TO AUGMENT CLOUD COVER ABOVE
       12000 FEET.
       "FAIR" INDICATES FEW OR NO CLOUDS BELOW 12,000 FEET WITH NO
       SIGNIFICANT WEATHER AND/OR OBSTRUCTIONS TO VISIBILITY.

  * THESE STATIONS DO NOT REPORT WEATHER SUCH AS RAIN...SNOW OR FOG.

NEZ001>004-019>022-054>056-261200-
NEBRASKA PANHANDLE

CITY           SKY/WX    TMP DP  RH WIND       PRES   REMARKS
SCOTTSBLUFF    CLOUDY    31  25  78 NW10      30.15S WCI  22
ALLIANCE       CLOUDY    28  21  75 N13       30.13R WCI  17
CHADRON        MOCLDY    32  21  64 NE9       30.18R WCI  24
SIDNEY         CLOUDY    28  24  85 N18       30.11R WCI  15
$$

NEZ057>060-069>072-079>082-261200-
SOUTHWEST NEBRASKA

CITY           SKY/WX    TMP DP  RH WIND       PRES   REMARKS
NORTH PLATTE   CLOUDY    32  22  66 NW18G31   30.07R WCI  20
IMPERIAL       CLOUDY    34  23  64 NW15      30.12R WCI  24
LEXINGTON      CLOUDY    37  24  59 NW18G25   30.02R WCI  26
MCCOOK         CLOUDY    37  25  61 NW14      30.08R WCI  28
$$

NEZ005>010-023>029-035>040-094-261200-
NORTH CENTRAL NEBRASKA

CITY           SKY/WX    TMP DP  RH WIND       PRES   REMARKS
VALENTINE      CLOUDY    26  19  74 NW30G40   30.09R WCI  10
BROKEN BOW     CLOUDY    33  22  63 NW23G45   30.01R WCI  21
ORD            CLOUDY    33  23  66 NW25G44   29.99R WCI  20
$$

NEZ041-046>049-061>064-073>077-083>087-261200-
SOUTH CENTRAL NEBRASKA

CITY           SKY/WX    TMP DP  RH WIND       PRES   REMARKS
GRAND ISLAND   CLOUDY    37  25  61 NW26G35   29.96R WCI  25
AURORA         CLOUDY    37  28  70 NW17G24   29.94R WCI  27
HASTINGS       CLOUDY    36  24  62 NW22      29.96S WCI  25
KEARNEY *      CLOUDY    37  21  52 W21G30    29.99S WCI  27
YORK           PTCLDY    34  28  80 NW16      29.93R WCI  23
$$

NEZ011>018-030>034-042>045-261200-
NORTHEAST NEBRASKA

CITY           SKY/WX    TMP DP  RH WIND       PRES   REMARKS
NORFOLK        CLOUDY    36  31  82 NW23G30   29.89R WCI  24
BLAIR          CLOUDY    39  34  82 NW14G20   29.83S WCI  31
COLUMBUS *     CLOUDY    36  28  75 NW18G26   29.92R WCI  25
TEKAMAH        CLOUDY    39  34  82 NW17      29.84R WCI  30
WAYNE          LGT RAIN  35  33  92 NW15G22   29.88R WCI  26
$$

NEZ050>053-065>068-078-088>093-261200-
SOUTHEAST NEBRASKA

CITY           SKY/WX    TMP DP  RH WIND       PRES   REMARKS
LINCOLN        CLOUDY    37  29  72 NW15      29.91R WCI  28
OMAHA EPPLEY   CLOUDY    39  35  86 W15       29.85S WCI  31
FALLS CITY     MOCLDY    39  32  76 W15       29.89R WCI  31
NEBRASKA CITY  CLOUDY    37  31  79 W15G21    29.87R WCI  27
PLATTSMOUTH    CLOUDY    37  32  81 W16G23    29.85R WCI  28
$$

NEZ044-045-051>053-067-261200-
OMAHA AREA

CITY           SKY/WX    TMP DP  RH WIND       PRES   REMARKS
OMAHA EPPLEY   CLOUDY    39  35  86 W15       29.85S WCI  31
BLAIR          CLOUDY    39  34  82 NW14G20   29.83S WCI  31
MILLARD        CLOUDY    39  33  81 NW14      29.85S WCI  30
OFFUTT AFB     CLOUDY    38  34  83 W14       29.84S WCI  30
PLATTSMOUTH    CLOUDY    37  32  81 W16G23    29.85R WCI  28
WAHOO          CLOUDY    38  31  78 NW16G24   29.87R WCI  28
$$


USA.gov is the U.S. government's official web portal to all federal, state and local government web resources and services.